Regional Weather Roundup
Issued by NWS

Home | Current Version | Previous Version | Graphics & Text | Print | Product List | Glossary On
Versions: 1 2 3 4 5 6 7 8 9 10 11 12 13 14 15 16 17 18 19 20 21 22 23 24 25 26 27 28 29 30 31 32 33 34 35 36 37 38 39 40 41 42 43 44 45 46 47 48 49 50
000
ASUS43 KBIS 290010
RWRND

NORTH DAKOTA REGIONAL WEATHER ROUNDUP
NATIONAL WEATHER SERVICE BISMARCK ND
600 PM CST FRI NOV 28 2014

NOTE: "FAIR" INDICATES FEW OR NO CLOUDS BELOW 12,000 FEET WITH NO
SIGNIFICANT WEATHER AND/OR OBSTRUCTIONS TO VISIBILITY.


NDZ001>003-009>011-017-290100-
NORTHWEST NORTH DAKOTA

CITY           SKY/WX    TMP DP  RH WIND       PRES   REMARKS
WILLISTON      CLOUDY    24  19  81 SE3       29.43F
6HR MIN TEMP:  20; 6HR MAX TEMP:  26; 6HR PCP: TRACE;

MINOT          PTCLDY    13   7  77 SE13      29.52F WCI  -2
MINOT AFB      PTCLDY    11   8  88 SE13      29.52F WCI  -4
$$

NDZ018>021-031>035-040>046-290100-
SOUTHWEST NORTH DAKOTA

CITY           SKY/WX    TMP DP  RH WIND       PRES   REMARKS
BISMARCK       MOCLDY    19  15  84 SE10      29.55F WCI   7
6HR MIN TEMP:  17; 6HR MAX TEMP:  22;

DICKINSON      MOCLDY    39  32  76 S12       29.43F
GARRISON         N/A     16  12  84 SE13      29.50F WCI   2
6HR MIN TEMP:  13; 6HR MAX TEMP:  18;

HETTINGER ARPT CLOUDY    42  31  64 CALM      29.50S
$$

NDZ004>008-012>016-024-026-027-054-290100-
NORTHEAST NORTH DAKOTA

CITY           SKY/WX    TMP DP  RH WIND       PRES   REMARKS
GRAND FORKS    CLOUDY    16  10  77 SE10      29.75F WCI   4
GRND FRKS AFB  PTCLDY    13   9  83 S8        29.75F WCI   2
DEVILS LAKE    MOCLDY    12   1  62 SE14      29.63F WCI  -3
$$

NDZ022-023-025-028>030-036>039-047>053-290100-
SOUTHEAST NORTH DAKOTA

CITY           SKY/WX    TMP DP  RH WIND       PRES   REMARKS
FARGO          PTCLDY    17   9  70 E7        29.75S WCI   8
6HR MIN TEMP:  16; 6HR MAX TEMP:  19; 6HR PCP:  0.01;

JAMESTOWN      CLOUDY    14  10  84 SE13      29.65F WCI   0
$$




USA.gov is the U.S. government's official web portal to all federal, state and local government web resources and services.